STARLINK-34210

Satellite information

Favourite Embed

Satellite Type and Status

PAYLOADIN ORBIT

Key statistics

Satellite STARLINK-34210 at a glance.

Uptime

30

Days in orbit

Revolutions

≈ 15.4

Per day

Orbit

SSO

Sun Synchronous Orbit

Inclination

97.6

Latest

Satellite identification and parameters

Extended collection of information and parameters for STARLINK-34210.

Object identification

Identified? True

Debris? False

Object name: STARLINK-34210

International designator: 2025-211B

Object number (NORAD): 65653

Object ID (CCSDS): 65653

Country: UNITED STATES OF AMERICA (US)

Current information (Y/N): Y

Orbital parameters

Period: 93.295 minutes

Inclination: 97.6043 deg

SMA: 6813.96 km

Apoapsis: 436.953 km

Periapsis: 434.697 km

RAAN: 334.1466 deg

Eccentricy: 0.00016557

Argument of periapsis: 69.6817 deg

Mean anomaly: 345.4048 deg

Mean motion: 15.43488497 rev/day

Mean motion (dot): -0.02323258 rev/day2

B* drag term: -0.058106114 1/REarth

Two-line elements (TLE)

Creation date: Oct. 19, 2025, 2:20 a.m.

Reference frame: TEME

Reference center: EARTH

Epoch: Oct. 19, 2025, midnight UTC

TLE line 0: 0 STARLINK-34210

TLE line 1: 1 65653U 25211B 25292.00003472 -.02323258 00000-0 -58106-1 0 9990

TLE line 2: 2 65653 97.6043 334.1466 0001656 69.6817 345.4048 15.43488497 5789

Live tracking on map

Real-time ground track for satellite STARLINK-34210.

In-orbit conjunctions

There are no conjunctions computed for STARLINK-34210, at the moment. Check back to stay up to date, as we update our databases every day.

Go to all conjunctions

Associated space launch

A batch of 24 satellites for the Starlink mega-constellation - SpaceX's project for space-based Internet communication system.

STARLINK-34210 was lifted into orbit during the mission ‘Falcon 9 Block 5 | Starlink Group 17-12’, on board a Falcon 9 space rocket.

The launch took place on Sept. 19, 2025, 4:31 p.m. from Space Launch Complex 4E.

For more information about the launch, click the button.

Launch to space Falcon 9 Block 5 | Starlink Group 17-12
Falcon 9 Block 5 | Starlink Group 17-12

Agency: SpaceX

Status: Launch Successful

Launch date: Sept. 19, 2025, 4:31 p.m. UTC

Rocket: Falcon 9

Launch pad: Space Launch Complex 4E

Location: Vandenberg SFB, CA, USA

...

Latest news about this satellite

News about space launch
Live coverage: SpaceX to launch 24 Starlink satellites on Falcon 9 rocket from Vandenberg SFB

The Starlink 17-12 mission will send the two dozen broadband internet satellites into a polar, low Earth orbit. SpaceX is targeting liftoff from pad 4E at Vandenberg Space Force Base at 8:43 a.m. PDT (11:43 a.m. EDT / 1543 UTC).

News about space launch
Launch Roundup: Starlink, NRO, and New Shepard missions scheduled

Another busy week of launches has arrived, with SpaceX dominating the launch manifest with four… The post Launch Roundup: Starlink, NRO, and New Shepard missions scheduled appeared first on NASASpaceFlight.com.


Newsletter sign-up

Weekly statistics, charts and insights to help you stay on top of the space industry.